| time (UTC) | temp C | wind direction | speed KPH | gust KPH | rain 1hr cm | rain 24hr cm | rain mn cm | humidity % | barometer mb |
| 20260506155924 | 14 | 273 | 0.0 | 0.0 | 0.05 | 0.76 | 0.71 | 94 | 1005.5 |
| 20260506155423 | 14 | 273 | 0.0 | 0.0 | 0.08 | 0.76 | 0.71 | 94 | 1005.5 |
| 20260506154920 | 14 | 275 | 0.0 | 0.0 | 0.08 | 0.76 | 0.71 | 94 | 1005.6 |
| 20260506154417 | 14 | 275 | 0.0 | 0.0 | 0.08 | 0.76 | 0.71 | 94 | 1005.6 |
| 20260506153917 | 14 | 275 | 0.0 | 0.0 | 0.05 | 0.74 | 0.69 | 94 | 1005.6 |
| 20260506153414 | 14 | 277 | 0.0 | 0.0 | 0.08 | 0.74 | 0.69 | 94 | 1005.5 |
| 20260506152915 | 14 | 155 | 0.0 | 0.0 | 0.08 | 0.74 | 0.69 | 94 | 1005.5 |
| 20260506152650 | 14 | 244 | 0.0 | 0.0 | 0.08 | 0.74 | 0.69 | 94 | 1005.5 |
| 20260506151908 | 14 | 0 | 0.0 | 0.0 | 0.08 | 0.74 | 0.69 | 94 | 1005.5 |
| 20260506151406 | 14 | 236 | 0.0 | 0.0 | 0.10 | 0.74 | 0.69 | 94 | 1005.5 |
| 20260506150904 | 14 | 236 | 0.0 | 0.0 | 0.10 | 0.74 | 0.69 | 94 | 1005.8 |
| 20260506150403 | 14 | 136 | 0.0 | 0.0 | 0.08 | 0.71 | 0.69 | 94 | 1005.7 |
| 20260506145904 | 14 | 109 | 0.0 | 0.0 | 0.08 | 0.71 | 0.66 | 94 | 1005.6 |
| 20260506145402 | 14 | 292 | 0.0 | 0.0 | 0.05 | 0.69 | 0.66 | 94 | 1005.5 |
| 20260506145121 | 14 | 293 | 0.0 | 0.0 | 0.08 | 0.69 | 0.64 | 94 | 1005.5 |
| 20260506144345 | 14 | 0 | 0.0 | 0.0 | 0.08 | 0.69 | 0.64 | 94 | 1005.4 |
| 20260506143846 | 13 | 294 | 0.0 | 0.0 | 0.05 | 0.66 | 0.64 | 94 | 1005.4 |
| 20260506143338 | 13 | 294 | 0.0 | 0.0 | 0.08 | 0.66 | 0.61 | 94 | 1005.3 |
| 20260506143059 | 13 | 123 | 0.0 | 0.0 | 0.08 | 0.66 | 0.61 | 94 | 1005.3 |
| 20260506142337 | 13 | 76 | 0.0 | 0.0 | 0.10 | 0.66 | 0.61 | 94 | 1005.5 |
| 20260506141833 | 13 | 76 | 0.0 | 0.0 | 0.10 | 0.66 | 0.61 | 94 | 1005.6 |
| 20260506141331 | 13 | 76 | 0.0 | 0.0 | 0.10 | 0.64 | 0.58 | 94 | 1005.5 |
| 20260506140828 | 13 | 76 | 0.0 | 0.0 | 0.13 | 0.64 | 0.58 | 94 | 1005.5 |
| 20260506140327 | 13 | 76 | 0.0 | 0.0 | 0.15 | 0.64 | 0.58 | 94 | 1005.6 |
| 20260506135827 | 13 | 76 | 0.0 | 0.0 | 0.18 | 0.64 | 0.58 | 94 | 1005.7 |
| 20260506135318 | 13 | 76 | 0.0 | 0.0 | 0.20 | 0.64 | 0.58 | 94 | 1005.7 |
| 20260506134818 | 13 | 76 | 0.0 | 0.0 | 0.20 | 0.61 | 0.56 | 94 | 1005.7 |
| 20260506134317 | 12 | 76 | 0.0 | 0.0 | 0.23 | 0.61 | 0.56 | 94 | 1005.8 |
| 20260506133815 | 12 | 76 | 0.0 | 0.0 | 0.25 | 0.58 | 0.56 | 94 | 1005.8 |
| 20260506133302 | 12 | 77 | 0.0 | 0.0 | 0.28 | 0.58 | 0.53 | 94 | 1005.8 |
| 20260506132759 | 12 | 233 | 0.0 | 0.0 | 0.30 | 0.58 | 0.53 | 94 | 1005.9 |
| 20260506132257 | 12 | 233 | 0.0 | 0.0 | 0.33 | 0.56 | 0.51 | 93 | 1006.0 |
| 20260506132012 | 12 | 233 | 0.0 | 0.0 | 0.36 | 0.56 | 0.51 | 94 | 1006.2 |
| 20260506131254 | 12 | 233 | 0.0 | 0.0 | 0.33 | 0.53 | 0.48 | 94 | 1006.3 |
| 20260506130748 | 12 | 233 | 0.0 | 0.0 | 0.33 | 0.51 | 0.46 | 93 | 1006.4 |
| 20260506130246 | 12 | 234 | 0.0 | 0.0 | 0.30 | 0.51 | 0.43 | 93 | 1006.5 |
| 20260506125744 | 12 | 234 | 0.0 | 0.0 | 0.28 | 0.48 | 0.41 | 93 | 1006.6 |
| 20260506125734 | 12 | 234 | 0.0 | 0.0 | 0.25 | 0.46 | 0.38 | 93 | 1006.6 |
| 20260506124739 | 11 | 234 | 0.0 | 0.0 | 0.23 | 0.43 | 0.36 | 93 | 1006.5 |
| 20260506124237 | 11 | 155 | 0.0 | 0.0 | 0.18 | 0.38 | 0.30 | 93 | 1006.5 |
| 20260506123734 | 11 | 154 | 0.0 | 0.0 | 0.18 | 0.36 | 0.28 | 93 | 1006.5 |
| 20260506123235 | 11 | 153 | 0.0 | 0.0 | 0.15 | 0.33 | 0.25 | 93 | 1006.3 |
| 20260506122727 | 11 | 153 | 0.0 | 0.0 | 0.13 | 0.30 | 0.23 | 93 | 1006.2 |
| 20260506122228 | 11 | 153 | 0.0 | 0.0 | 0.10 | 0.25 | 0.20 | 93 | 1006.3 |
| 20260506121723 | 11 | 153 | 0.0 | 0.0 | 0.08 | 0.23 | 0.15 | 93 | 1006.3 |
| 20260506121444 | 11 | 153 | 0.0 | 0.0 | 0.08 | 0.23 | 0.15 | 93 | 1006.2 |
| 20260506120932 | 11 | 153 | 0.0 | 0.0 | 0.05 | 0.20 | 0.13 | 93 | 1006.1 |
| 20260506120210 | 11 | 153 | 0.0 | 0.0 | 0.05 | 0.20 | 0.13 | 93 | 1006.1 |
| 20260506115703 | 11 | 153 | 0.0 | 0.0 | 0.05 | 0.20 | 0.13 | 93 | 1006.0 |
| 20260506115204 | 11 | 182 | 0.0 | 0.0 | 0.05 | 0.20 | 0.13 | 93 | 1006.0 |
| 20260506114627 | 11 | 196 | 0.0 | 0.0 | 0.05 | 0.20 | 0.13 | 93 | 1006.2 |
| 20260506114057 | 11 | 205 | 0.0 | 0.0 | 0.03 | 0.18 | 0.10 | 92 | 1006.5 |
| 20260506113534 | 11 | 205 | 0.0 | 0.0 | 0.03 | 0.18 | 0.10 | 92 | 1006.7 |
| 20260506113006 | 11 | 205 | 0.0 | 0.0 | 0.03 | 0.18 | 0.10 | 92 | 1006.7 |
| 20260506112438 | 11 | 205 | 0.0 | 0.0 | 0.00 | 0.15 | 0.08 | 92 | 1006.7 |
| 20260506111913 | 11 | 205 | 0.0 | 0.0 | 0.00 | 0.18 | 0.08 | 92 | 1006.6 |
| 20260506111349 | 11 | 205 | 0.0 | 0.0 | 0.03 | 0.18 | 0.08 | 92 | 1006.6 |
| 20260506111049 | 11 | 205 | 0.0 | 0.0 | 0.03 | 0.18 | 0.08 | 92 | 1006.7 |
| 20260506110256 | 11 | 205 | 0.0 | 0.0 | 0.03 | 0.18 | 0.08 | 92 | 1006.7 |
| 20260506105739 | 11 | 205 | 0.0 | 0.0 | 0.03 | 0.18 | 0.08 | 92 | 1006.5 |
| 20260506105238 | 11 | 205 | 0.0 | 0.0 | 0.03 | 0.18 | 0.08 | 92 | 1006.5 |
| 20260506104931 | 11 | 205 | 0.0 | 0.0 | 0.03 | 0.18 | 0.08 | 92 | 1006.5 |
| 20260506104634 | 11 | 205 | 0.0 | 0.0 | 0.03 | 0.18 | 0.08 | 91 | 1006.4 |
| 20260506103616 | 11 | 205 | 0.0 | 0.0 | 0.03 | 0.18 | 0.08 | 91 | 1006.4 |
| 20260506103047 | 11 | 205 | 0.0 | 0.0 | 0.03 | 0.18 | 0.08 | 91 | 1006.5 |
| 20260506102520 | 11 | 205 | 0.0 | 0.0 | 0.03 | 0.18 | 0.08 | 91 | 1006.5 |
| 20260506102430 | 11 | 205 | 0.0 | 0.0 | 0.03 | 0.18 | 0.08 | 91 | 1006.5 |
| 20260506101425 | 11 | 205 | 0.0 | 0.0 | 0.00 | 0.15 | 0.05 | 91 | 1006.3 |
| 20260506100900 | 11 | 205 | 0.0 | 0.0 | 0.00 | 0.15 | 0.05 | 91 | 1006.2 |
| 20260506100333 | 11 | 205 | 0.0 | 0.0 | 0.00 | 0.15 | 0.05 | 91 | 1006.2 |
| 20260506095805 | 11 | 205 | 0.0 | 0.0 | 0.03 | 0.15 | 0.05 | 91 | 1006.2 |
| 20260506095238 | 11 | 205 | 0.0 | 0.0 | 0.03 | 0.15 | 0.05 | 90 | 1006.1 |
| 20260506094739 | 11 | 205 | 0.0 | 0.0 | 0.03 | 0.15 | 0.05 | 90 | 1006.2 |
| 20260506094240 | 11 | 205 | 0.0 | 0.0 | 0.03 | 0.15 | 0.05 | 90 | 1006.2 |
| 20260506093737 | 11 | 205 | 0.0 | 0.0 | 0.03 | 0.15 | 0.05 | 90 | 1006.2 |
| 20260506093235 | 11 | 205 | 0.0 | 0.0 | 0.03 | 0.15 | 0.05 | 90 | 1006.2 |
| 20260506092735 | 11 | 205 | 0.0 | 0.0 | 0.05 | 0.15 | 0.05 | 90 | 1006.3 |
| 20260506092234 | 11 | 205 | 0.0 | 0.0 | 0.05 | 0.15 | 0.05 | 90 | 1006.3 |
| 20260506091727 | 11 | 205 | 0.0 | 0.0 | 0.05 | 0.15 | 0.05 | 90 | 1006.3 |
| 20260506091226 | 11 | 205 | 0.0 | 0.0 | 0.05 | 0.15 | 0.05 | 90 | 1006.3 |
| 20260506090723 | 11 | 205 | 0.0 | 0.0 | 0.05 | 0.15 | 0.05 | 90 | 1006.4 |
| 20260506090441 | 11 | 205 | 0.0 | 0.0 | 0.03 | 0.13 | 0.03 | 90 | 1006.5 |
| 20260506085720 | 11 | 205 | 0.0 | 0.0 | 0.03 | 0.13 | 0.03 | 90 | 1006.5 |
| 20260506085217 | 11 | 205 | 0.0 | 0.0 | 0.03 | 0.13 | 0.03 | 89 | 1006.6 |
| 20260506084717 | 11 | 205 | 0.0 | 0.0 | 0.03 | 0.13 | 0.03 | 89 | 1006.6 |
| 20260506084442 | 11 | 205 | 0.0 | 0.0 | 0.03 | 0.13 | 0.03 | 89 | 1006.8 |
| 20260506083934 | 11 | 205 | 0.0 | 0.0 | 0.03 | 0.13 | 0.03 | 89 | 1006.8 |
| 20260506083437 | 11 | 205 | 0.0 | 0.0 | 0.03 | 0.13 | 0.03 | 89 | 1006.9 |
| 20260506082914 | 11 | 205 | 0.0 | 0.0 | 0.00 | 0.10 | 0.00 | 89 | 1007.1 |
| 20260506082419 | 11 | 205 | 0.0 | 0.0 | 0.00 | 0.10 | 0.00 | 89 | 1007.1 |
| 20260506081649 | 11 | 205 | 0.0 | 0.0 | 0.00 | 0.10 | 0.00 | 88 | 1007.1 |
| 20260506081147 | 11 | 205 | 0.0 | 0.0 | 0.00 | 0.10 | 0.00 | 89 | 1007.1 |
| 20260506080911 | 11 | 205 | 0.0 | 0.0 | 0.00 | 0.10 | 0.00 | 88 | 1006.9 |
| 20260506080143 | 11 | 205 | 0.0 | 0.0 | 0.00 | 0.10 | 0.00 | 88 | 1006.8 |
| 20260506073135 | 11 | 205 | 0.0 | 0.0 | 0.00 | 0.10 | 0.00 | 88 | 1006.7 |
| 20260506072632 | 11 | 205 | 0.0 | 0.0 | 0.00 | 0.10 | 0.00 | 87 | 1007.1 |
| 20260506072133 | 11 | 205 | 0.0 | 0.0 | 0.00 | 0.10 | 0.00 | 87 | 1006.9 |
| 20260506071633 | 11 | 205 | 0.0 | 0.0 | 0.00 | 0.10 | 0.00 | 87 | 1006.8 |
| 20260506071128 | 11 | 205 | 0.0 | 0.0 | 0.00 | 0.10 | 0.00 | 87 | 1006.8 |
| 20260506070626 | 11 | 205 | 0.0 | 0.0 | 0.00 | 0.10 | 0.00 | 87 | 1006.8 |
| 20260506070123 | 11 | 205 | 0.0 | 0.0 | 0.00 | 0.10 | 0.00 | 87 | 1006.8 |
| 20260506062024 | 12 | 205 | 0.0 | 0.0 | 0.00 | 0.10 | 0.00 | 87 | 1007.3 |
| 20260506061522 | 12 | 205 | 0.0 | 0.0 | 0.00 | 0.10 | 0.00 | 87 | 1007.5 |
| 20260506061021 | 12 | 205 | 0.0 | 0.0 | 0.00 | 0.10 | 0.00 | 87 | 1007.6 |
| 20260506060520 | 12 | 205 | 0.0 | 0.0 | 0.00 | 0.10 | 0.00 | 87 | 1007.6 |
| 20260506050935 | 12 | 0 | 0.0 | 0.0 | 0.00 | 0.10 | 0.00 | 85 | 1008.4 |
| 20260506050434 | 12 | 312 | 0.0 | 0.0 | 0.00 | 0.10 | 0.00 | 85 | 1008.3 |
| 20260506044917 | 12 | 311 | 0.0 | 0.0 | 0.00 | 0.10 | 0.00 | 83 | 1008.6 |
| 20260506044419 | 12 | 311 | 0.0 | 0.0 | 0.00 | 0.10 | 0.00 | 83 | 1008.6 |
| 20260506043919 | 12 | 311 | 0.0 | 0.0 | 0.00 | 0.10 | 0.00 | 83 | 1008.6 |
| 20260506043420 | 12 | 311 | 0.0 | 0.0 | 0.00 | 0.10 | 0.00 | 83 | 1008.6 |
| 20260506042855 | 12 | 311 | 0.0 | 0.0 | 0.00 | 0.10 | 0.00 | 83 | 1008.7 |
| 20260506042328 | 12 | 311 | 0.0 | 0.0 | 0.00 | 0.10 | 0.00 | 82 | 1008.6 |
| 20260506041812 | 13 | 311 | 0.0 | 0.0 | 0.00 | 0.10 | 0.00 | 82 | 1008.7 |
| 20260506041542 | 13 | 312 | 0.0 | 0.0 | 0.00 | 0.10 | 0.00 | 82 | 1008.6 |
| 20260506040811 | 13 | 0 | 0.0 | 0.0 | 0.00 | 0.10 | 0.00 | 82 | 1008.6 |
| 20260506040309 | 13 | 0 | 0.0 | 0.0 | 0.00 | 0.10 | 0.00 | 81 | 1008.7 |
| 20260506035810 | 13 | 0 | 0.0 | 0.0 | 0.00 | 0.10 | 0.10 | 81 | 1008.8 |
| 20260506035310 | 13 | 0 | 0.0 | 0.0 | 0.00 | 0.10 | 0.10 | 81 | 1008.9 |
| 20260506035031 | 13 | 0 | 0.0 | 0.0 | 0.00 | 0.10 | 0.10 | 81 | 1008.9 |
| 20260506034305 | 13 | 312 | 0.0 | 0.0 | 0.00 | 0.10 | 0.10 | 80 | 1008.9 |
| 20260506034030 | 13 | 312 | 0.0 | 0.0 | 0.00 | 0.10 | 0.10 | 80 | 1008.9 |
| 20260506033306 | 13 | 312 | 0.0 | 0.0 | 0.00 | 0.10 | 0.10 | 80 | 1009.1 |
| 20260506033243 | 13 | 312 | 0.0 | 0.0 | 0.00 | 0.10 | 0.10 | 80 | 1009.3 |
| 20260506032258 | 14 | 0 | 0.0 | 0.0 | 0.00 | 0.10 | 0.10 | 81 | 1009.4 |
| 20260506031755 | 14 | 0 | 0.0 | 0.0 | 0.00 | 0.10 | 0.10 | 81 | 1009.3 |
| 20260506031255 | 14 | 0 | 0.0 | 0.0 | 0.00 | 0.10 | 0.10 | 81 | 1009.3 |
| 20260506030756 | 14 | 311 | 0.0 | 0.0 | 0.00 | 0.10 | 0.10 | 82 | 1009.1 |
| 20260506030253 | 15 | 349 | 0.0 | 0.0 | 0.00 | 0.10 | 0.10 | 83 | 1008.9 |
| 20260506025754 | 15 | 13 | 0.0 | 0.0 | 0.00 | 0.10 | 0.10 | 83 | 1009.2 |
| 20260506025724 | 15 | 0 | 0.0 | 0.0 | 0.00 | 0.10 | 0.10 | 83 | 1009.1 |
| 20260506024741 | 15 | 0 | 0.0 | 0.0 | 0.00 | 0.10 | 0.10 | 83 | 1008.9 |
| 20260506024458 | 15 | 0 | 0.0 | 4.8 | 0.00 | 0.10 | 0.10 | 83 | 1008.8 |
| 20260506024004 | 15 | 0 | 0.0 | 8.0 | 0.00 | 0.10 | 0.10 | 83 | 1008.9 |
| 20260506023456 | 15 | 286 | 0.0 | 8.0 | 0.00 | 0.10 | 0.10 | 83 | 1009.0 |
| 20260506022735 | 15 | 0 | 0.0 | 0.0 | 0.00 | 0.10 | 0.10 | 83 | 1009.0 |
| 20260506022234 | 15 | 301 | 0.0 | 0.0 | 0.00 | 0.10 | 0.10 | 84 | 1008.9 |
| 20260506021732 | 16 | 0 | 0.0 | 0.0 | 0.00 | 0.10 | 0.10 | 84 | 1008.7 |
| 20260506021457 | 16 | 0 | 0.0 | 0.0 | 0.00 | 0.10 | 0.10 | 84 | 1008.7 |
| 20260506020732 | 16 | 0 | 0.0 | 0.0 | 0.00 | 0.10 | 0.10 | 84 | 1008.8 |
| 20260506020230 | 16 | 0 | 0.0 | 0.0 | 0.00 | 0.10 | 0.10 | 85 | 1008.7 |
| 20260506015950 | 16 | 0 | 0.0 | 0.0 | 0.00 | 0.10 | 0.10 | 85 | 1008.6 |
| 20260506015438 | 16 | 0 | 0.0 | 0.0 | 0.00 | 0.10 | 0.10 | 85 | 1008.4 |
| 20260506014720 | 16 | 0 | 0.0 | 0.0 | 0.00 | 0.10 | 0.10 | 85 | 1008.3 |
| 20260506014220 | 16 | 312 | 0.0 | 0.0 | 0.00 | 0.10 | 0.10 | 86 | 1008.5 |
| 20260506013930 | 16 | 0 | 0.0 | 0.0 | 0.00 | 0.10 | 0.10 | 86 | 1008.4 |
| 20260506013434 | 16 | 0 | 0.0 | 0.0 | 0.00 | 0.10 | 0.10 | 86 | 1008.2 |
| 20260506012709 | 16 | 309 | 0.0 | 0.0 | 0.00 | 0.10 | 0.10 | 86 | 1008.1 |
| 20260506012208 | 16 | 309 | 0.0 | 0.0 | 0.00 | 0.10 | 0.10 | 86 | 1007.9 |
| 20260506011710 | 16 | 309 | 0.0 | 0.0 | 0.00 | 0.10 | 0.10 | 86 | 1007.9 |
| 20260506011206 | 16 | 0 | 0.0 | 0.0 | 0.00 | 0.10 | 0.10 | 86 | 1007.9 |
| 20260506010705 | 16 | 0 | 0.0 | 0.0 | 0.00 | 0.10 | 0.10 | 86 | 1007.7 |
| 20260506010202 | 16 | 306 | 0.0 | 0.0 | 0.00 | 0.10 | 0.10 | 86 | 1007.7 |
| 20260506005701 | 16 | 283 | 0.0 | 0.0 | 0.00 | 0.10 | 0.10 | 85 | 1007.7 |
| 20260506005425 | 16 | 283 | 0.0 | 0.0 | 0.00 | 0.10 | 0.10 | 85 | 1007.4 |
| 20260506004701 | 16 | 283 | 0.0 | 0.0 | 0.00 | 0.10 | 0.10 | 85 | 1007.2 |
| 20260506004201 | 16 | 283 | 0.0 | 0.0 | 0.00 | 0.10 | 0.10 | 84 | 1006.9 |
| 20260506003920 | 16 | 283 | 0.0 | 0.0 | 0.00 | 0.10 | 0.10 | 84 | 1006.8 |
| 20260506003159 | 16 | 283 | 0.0 | 0.0 | 0.00 | 0.10 | 0.10 | 84 | 1006.8 |
| 20260506002658 | 17 | 283 | 0.0 | 0.0 | 0.00 | 0.10 | 0.10 | 83 | 1006.8 |
| 20260506002151 | 17 | 283 | 0.0 | 0.0 | 0.00 | 0.10 | 0.10 | 82 | 1006.8 |
| 20260506001650 | 17 | 283 | 0.0 | 0.0 | 0.00 | 0.10 | 0.10 | 81 | 1006.7 |
| 20260506001147 | 17 | 283 | 0.0 | 0.0 | 0.00 | 0.10 | 0.10 | 81 | 1006.8 |
| 20260506000648 | 17 | 283 | 0.0 | 0.0 | 0.00 | 0.10 | 0.10 | 81 | 1006.8 |
| 20260506000134 | 17 | 283 | 0.0 | 0.0 | 0.00 | 0.10 | 0.10 | 81 | 1006.7 |
| 20260505235632 | 18 | 283 | 0.0 | 0.0 | 0.00 | 0.10 | 0.10 | 81 | 1006.5 |
| 20260505235105 | 18 | 283 | 0.0 | 0.0 | 0.00 | 0.10 | 0.10 | 80 | 1006.6 |
| 20260505234604 | 18 | 283 | 0.0 | 0.0 | 0.00 | 0.10 | 0.10 | 80 | 1006.7 |
| 20260505234101 | 18 | 283 | 0.0 | 0.0 | 0.00 | 0.10 | 0.10 | 79 | 1006.7 |
| 20260505233602 | 18 | 283 | 0.0 | 0.0 | 0.00 | 0.10 | 0.10 | 79 | 1006.7 |
| 20260505233056 | 18 | 283 | 0.0 | 0.0 | 0.00 | 0.10 | 0.10 | 79 | 1006.8 |
| 20260505232556 | 18 | 283 | 0.0 | 0.0 | 0.00 | 0.10 | 0.10 | 79 | 1006.7 |
| 20260505232056 | 18 | 283 | 0.0 | 0.0 | 0.00 | 0.10 | 0.10 | 79 | 1006.7 |
| 20260505231553 | 18 | 283 | 0.0 | 0.0 | 0.00 | 0.10 | 0.10 | 79 | 1006.7 |
| 20260505231052 | 18 | 283 | 0.0 | 0.0 | 0.00 | 0.10 | 0.10 | 79 | 1006.7 |
| 20260505230552 | 18 | 283 | 0.0 | 0.0 | 0.00 | 0.10 | 0.10 | 78 | 1006.7 |
| 20260505230048 | 18 | 283 | 0.0 | 0.0 | 0.00 | 0.10 | 0.10 | 78 | 1006.6 |
| 20260505225549 | 18 | 283 | 0.0 | 0.0 | 0.00 | 0.10 | 0.10 | 78 | 1006.6 |
| 20260505225050 | 18 | 283 | 0.0 | 0.0 | 0.00 | 0.10 | 0.10 | 78 | 1006.6 |
| 20260505224529 | 18 | 283 | 0.0 | 0.0 | 0.00 | 0.10 | 0.10 | 78 | 1006.5 |
| 20260505224024 | 18 | 283 | 0.0 | 0.0 | 0.00 | 0.10 | 0.10 | 78 | 1006.5 |
| 20260505223522 | 18 | 283 | 0.0 | 0.0 | 0.00 | 0.10 | 0.10 | 78 | 1006.4 |
| 20260505223252 | 18 | 283 | 0.0 | 0.0 | 0.00 | 0.10 | 0.10 | 78 | 1006.4 |
| 20260505222515 | 18 | 283 | 0.0 | 0.0 | 0.00 | 0.10 | 0.10 | 78 | 1006.4 |
| 20260505222240 | 18 | 283 | 0.0 | 0.0 | 0.00 | 0.10 | 0.10 | 77 | 1006.3 |
| 20260505221507 | 19 | 283 | 0.0 | 0.0 | 0.00 | 0.10 | 0.10 | 77 | 1006.3 |
| 20260505221008 | 19 | 253 | 0.0 | 0.0 | 0.00 | 0.10 | 0.10 | 77 | 1006.6 |
| 20260505220504 | 19 | 271 | 0.0 | 0.0 | 0.00 | 0.10 | 0.10 | 77 | 1006.5 |
| 20260505220004 | 19 | 173 | 0.0 | 0.0 | 0.00 | 0.10 | 0.10 | 78 | 1006.6 |
| 20260505215720 | 19 | 173 | 0.0 | 0.0 | 0.00 | 0.10 | 0.10 | 78 | 1006.4 |
| 20260505214955 | 19 | 147 | 0.0 | 0.0 | 0.00 | 0.10 | 0.10 | 78 | 1005.9 |
| 20260505214451 | 19 | 147 | 0.0 | 0.0 | 0.00 | 0.10 | 0.10 | 77 | 1005.7 |
| 20260505213950 | 19 | 147 | 0.0 | 0.0 | 0.00 | 0.10 | 0.10 | 78 | 1005.8 |
| 20260505213448 | 19 | 147 | 0.0 | 0.0 | 0.00 | 0.10 | 0.10 | 78 | 1005.9 |
| 20260505212948 | 19 | 146 | 0.0 | 0.0 | 0.00 | 0.10 | 0.10 | 78 | 1005.7 |
| 20260505212436 | 18 | 140 | 0.0 | 0.0 | 0.00 | 0.10 | 0.10 | 78 | 1005.7 |
| 20260505211933 | 18 | 140 | 0.0 | 0.0 | 0.00 | 0.10 | 0.10 | 79 | 1005.7 |
| 20260505211404 | 18 | 140 | 0.0 | 0.0 | 0.00 | 0.10 | 0.10 | 80 | 1005.7 |
| 20260505211120 | 18 | 140 | 0.0 | 0.0 | 0.00 | 0.10 | 0.10 | 79 | 1005.8 |
| 20260505210359 | 18 | 140 | 0.0 | 0.0 | 0.00 | 0.10 | 0.10 | 80 | 1005.7 |
| 20260505205858 | 18 | 159 | 0.0 | 0.0 | 0.00 | 0.10 | 0.10 | 80 | 1005.7 |
| 20260505205622 | 18 | 159 | 0.0 | 0.0 | 0.00 | 0.10 | 0.10 | 81 | 1005.8 |
| 20260505204854 | 18 | 159 | 0.0 | 0.0 | 0.00 | 0.10 | 0.10 | 82 | 1005.9 |
| 20260505204356 | 18 | 249 | 0.0 | 0.0 | 0.03 | 0.10 | 0.10 | 82 | 1006.0 |
| 20260505203853 | 18 | 250 | 0.0 | 0.0 | 0.03 | 0.10 | 0.10 | 81 | 1006.0 |
| 20260505203608 | 18 | 250 | 0.0 | 0.0 | 0.05 | 0.10 | 0.10 | 81 | 1006.2 |
| 20260505202852 | 18 | 250 | 0.0 | 0.0 | 0.05 | 0.10 | 0.10 | 82 | 1006.2 |
| 20260505202345 | 18 | 250 | 0.0 | 0.0 | 0.05 | 0.10 | 0.10 | 81 | 1006.3 |
| 20260505201844 | 18 | 250 | 0.0 | 0.0 | 0.05 | 0.10 | 0.10 | 79 | 1006.4 |
| 20260505201341 | 18 | 251 | 0.0 | 0.0 | 0.05 | 0.10 | 0.10 | 78 | 1006.3 |
| 20260505200839 | 18 | 251 | 0.0 | 0.0 | 0.05 | 0.10 | 0.10 | 77 | 1006.3 |
| 20260505200338 | 18 | 251 | 0.0 | 0.0 | 0.05 | 0.10 | 0.10 | 75 | 1006.3 |
| 20260505195839 | 18 | 251 | 0.0 | 1.6 | 0.05 | 0.10 | 0.10 | 74 | 1006.0 |
| 20260505195339 | 19 | 251 | 0.0 | 1.6 | 0.05 | 0.10 | 0.10 | 72 | 1006.1 |
| 20260505195059 | 20 | 269 | 0.0 | 14.5 | 0.05 | 0.10 | 0.10 | 68 | 1006.2 |
| 20260505194331 | 21 | 283 | 4.8 | 32.2 | 0.03 | 0.08 | 0.10 | 62 | 1006.5 |
| 20260505193829 | 23 | 286 | 4.8 | 32.2 | 0.00 | 0.05 | 0.05 | 53 | 1006.6 |
| 20260505193328 | 25 | 242 | 1.6 | 17.7 | 0.00 | 0.05 | 0.05 | 38 | 1005.5 |
| 20260505192829 | 25 | 0 | 1.6 | 12.9 | 0.00 | 0.05 | 0.05 | 35 | 1004.9 |
| 20260505192557 | 25 | 0 | 0.0 | 20.9 | 0.00 | 0.05 | 0.05 | 35 | 1004.4 |
| 20260505192315 | 25 | 257 | 1.6 | 20.9 | 0.00 | 0.05 | 0.05 | 34 | 1004.2 |
| 20260505191328 | 26 | 255 | 3.2 | 20.9 | 0.00 | 0.05 | 0.05 | 33 | 1004.2 |
| 20260505190825 | 26 | 266 | 3.2 | 22.5 | 0.00 | 0.05 | 0.05 | 33 | 1004.4 |
| 20260505190323 | 26 | 243 | 1.6 | 22.5 | 0.00 | 0.05 | 0.05 | 34 | 1004.3 |
| 20260505185825 | 26 | 284 | 1.6 | 19.3 | 0.00 | 0.05 | 0.05 | 38 | 1004.1 |
| 20260505185551 | 26 | 261 | 3.2 | 19.3 | 0.00 | 0.05 | 0.05 | 36 | 1004.1 |
| 20260505184823 | 26 | 240 | 1.6 | 17.7 | 0.00 | 0.05 | 0.05 | 38 | 1004.4 |
| 20260505184308 | 26 | 256 | 1.6 | 17.7 | 0.00 | 0.05 | 0.05 | 39 | 1004.4 |
| 20260505183808 | 25 | 128 | 0.0 | 17.7 | 0.00 | 0.05 | 0.05 | 43 | 1004.7 |
| 20260505183308 | 25 | 129 | 0.0 | 11.3 | 0.00 | 0.05 | 0.05 | 42 | 1004.7 |
| 20260505182808 | 25 | 268 | 0.0 | 3.2 | 0.00 | 0.05 | 0.05 | 48 | 1004.7 |
| 20260505182307 | 25 | 241 | 0.0 | 1.6 | 0.00 | 0.05 | 0.05 | 50 | 1004.9 |
| 20260505182034 | 24 | 0 | 0.0 | 4.8 | 0.00 | 0.05 | 0.05 | 50 | 1005.0 |
| 20260505181305 | 23 | 286 | 0.0 | 4.8 | 0.00 | 0.05 | 0.05 | 51 | 1005.2 |
| 20260505180803 | 23 | 0 | 0.0 | 1.6 | 0.00 | 0.05 | 0.05 | 56 | 1005.2 |
| 20260505180529 | 23 | 271 | 0.0 | 1.6 | 0.00 | 0.05 | 0.05 | 59 | 1005.4 |
| 20260505175759 | 22 | 261 | 0.0 | 4.8 | 0.00 | 0.05 | 0.05 | 60 | 1005.5 |
| 20260505175301 | 22 | 0 | 0.0 | 14.5 | 0.00 | 0.05 | 0.05 | 61 | 1005.8 |
| 20260505174754 | 24 | 273 | 0.0 | 14.5 | 0.00 | 0.05 | 0.05 | 51 | 1005.9 |
| 20260505174252 | 24 | 239 | 1.6 | 17.7 | 0.00 | 0.05 | 0.05 | 47 | 1005.8 |
| 20260505174019 | 24 | 275 | 1.6 | 17.7 | 0.00 | 0.05 | 0.05 | 46 | 1005.8 |
| 20260505173252 | 24 | 248 | 1.6 | 14.5 | 0.00 | 0.05 | 0.05 | 45 | 1005.8 |
| 20260505172948 | 24 | 283 | 0.0 | 1.6 | 0.00 | 0.05 | 0.05 | 46 | 1005.8 |
| 20260505172222 | 24 | 256 | 0.0 | 1.6 | 0.00 | 0.05 | 0.05 | 48 | 1005.9 |
| 20260505171720 | 24 | 248 | 0.0 | 9.7 | 0.00 | 0.05 | 0.05 | 47 | 1005.8 |
| 20260505171219 | 24 | 259 | 1.6 | 19.3 | 0.00 | 0.05 | 0.05 | 46 | 1005.8 |
| 20260505170717 | 24 | 288 | 1.6 | 19.3 | 0.00 | 0.05 | 0.05 | 47 | 1005.7 |
| 20260505170218 | 25 | 246 | 0.0 | 0.0 | 0.00 | 0.05 | 0.05 | 46 | 1005.6 |
| 20260505165719 | 25 | 157 | 1.6 | 22.5 | 0.00 | 0.05 | 0.05 | 47 | 1005.5 |
| 20260505165218 | 25 | 283 | 1.6 | 22.5 | 0.00 | 0.05 | 0.05 | 46 | 1005.3 |
| 20260505164718 | 24 | 0 | 1.6 | 19.3 | 0.00 | 0.05 | 0.05 | 46 | 1005.4 |
| 20260505164214 | 25 | 202 | 1.6 | 16.1 | 0.00 | 0.05 | 0.05 | 43 | 1005.3 |
| 20260505163712 | 25 | 279 | 0.0 | 9.7 | 0.00 | 0.05 | 0.05 | 45 | 1005.4 |
| 20260505163212 | 25 | 247 | 0.0 | 6.4 | 0.00 | 0.05 | 0.05 | 44 | 1005.4 |
| 20260505162711 | 25 | 254 | 0.0 | 4.8 | 0.00 | 0.05 | 0.05 | 44 | 1005.5 |
| 20260505162204 | 25 | 245 | 0.0 | 4.8 | 0.00 | 0.05 | 0.05 | 43 | 1005.7 |
| 20260505161701 | 25 | 0 | 0.0 | 3.2 | 0.00 | 0.05 | 0.05 | 44 | 1005.7 |
| 20260505161202 | 25 | 257 | 0.0 | 3.2 | 0.00 | 0.05 | 0.05 | 43 | 1005.8 |
| 20260505160704 | 26 | 144 | 0.0 | 1.6 | 0.00 | 0.05 | 0.05 | 43 | 1005.8 |